Погода в Дрезне

Россия / Московская область     55°44′29″N   38°50′32″E
темп.,
°C
ветер,
м/с
пор.,
м/с
влажн.,
%
обл.,
%
осадки,
мм/ч
давл.,
гПа
погр.,
м
18 апреля, вс
вс1800:00+8всв614645 0.0 1021613
03:00+6всв614715 0.0 1021521
06:00+4всв5147450 0.0 1021542
09:00+8в61062100 0.0 1021975
12:00+7вюв51180100 1.6 1022956
15:00+6в41085100 3.8 1023967
18:00+7всв51285100 0.2 10231025
21:00+7в4128485 0.2 1024808
19 апреля, пн
пн1900:00+7св41079100 0.0 1024436
03:00+6всв51187100 0.0 1024600
06:00+5всв51088100 0.1 1024676
09:00+4всв51080100 0.5 1025632
12:00+4всв61191100 0.4 1026773
15:00+4всв51085100 1.2 1026874
18:00+6в5107298 0.4 10251269
21:00+4всв41165100 0.4 1025545
20 апреля, вт
вт2000:00+3всв5116442 0.0 1025666
03:00+2всв61287100 0.0 1024665
06:00+2в51291100 0.0 1024675
09:00+3в51294100 0.0 1024636
12:00+7в71073100 0.0 1023915
15:00+7в61174100 0.0 10211141
18:00+7в61474100 0.1 10191133
21:00+8в71569100 0.1 10161206
21 апреля, ср
ср2100:00+5в81788100 1.9 10131158
03:00+4в82195100 7.3 10081435
06:00+5вюв81790100 0.8 1006935
09:00+5вюв71691100 1.3 10051126
12:00+7вюв71592100 1.4 10041297
15:00+7ююв71292100 3.4 10031225
18:00+5ю71294100 0.4 10051166
21:00+5ююз61288100 0.6 10111200
22 апреля, чт
чт2200:00+5ююз61285100 0.1 10141142
03:00+6ююз51281100 0.1 1015752
06:00+5ююз4119096 0.0 1017531
09:00+7ююз498192 0.0 1019610
12:00+11юз575785 0.3 10211735
15:00+12юз355692 0.4 10211346
18:00+11ююз366177 0.1 1022488
21:00+7ю257978 0.1 102484